PTO1174 EDLP-EDLP

Flight info

Callsign PTO1174
Flight time 0h 21m
Altitude 3000
Route VFR
Aircraft DA42/L-VGD/A

Departure

Time 2026-05-01 14:28
Airport Paderborn Lippstadt Airport (EDLP)

Arrival

Time 2026-05-01 14:49
Airport Paderborn Lippstadt Airport (EDLP)
Time Latitude Longitude Altitude Speed Heading
2026-05-01 14:05 51.60995 8.61744 725 ft 0 kts 221°
2026-05-01 14:20 51.60995 8.61742 752 ft 0 kts 227°
2026-05-01 14:21 51.60980 8.61711 725 ft 5 kts 235°
2026-05-01 14:21 51.60995 8.61644 725 ft 10 kts 328°
2026-05-01 14:21 51.61058 8.61581 725 ft 12 kts 329°
2026-05-01 14:22 51.61109 8.61380 714 ft 10 kts 232°
2026-05-01 14:22 51.61071 8.61286 712 ft 11 kts 237°
2026-05-01 14:22 51.61023 8.61180 714 ft 11 kts 227°
2026-05-01 14:22 51.60982 8.61072 712 ft 11 kts 234°
2026-05-01 14:23 51.60938 8.60965 711 ft 12 kts 236°
2026-05-01 14:23 51.60889 8.60846 709 ft 13 kts 235°
2026-05-01 14:23 51.60826 8.60695 707 ft 20 kts 235°
2026-05-01 14:23 51.60757 8.60518 698 ft 17 kts 256°
2026-05-01 14:24 51.60776 8.60398 703 ft 0 kts 62°
2026-05-01 14:26 51.60777 8.60400 703 ft 0 kts 43°
2026-05-01 14:27 51.60784 8.60393 699 ft 2 kts 307°
2026-05-01 14:27 51.60820 8.60352 711 ft 8 kts 351°
2026-05-01 14:27 51.60890 8.60372 711 ft 12 kts 40°
2026-05-01 14:28 51.61287 8.61312 745 ft 92 kts 60°
2026-05-01 14:28 51.61559 8.61880 891 ft 98 kts 60°
2026-05-01 14:28 51.62025 8.62805 1109 ft 114 kts 50°
2026-05-01 14:28 51.62641 8.63646 1353 ft 127 kts 36°
2026-05-01 14:29 51.63553 8.64138 1465 ft 150 kts 10°
2026-05-01 14:29 51.64606 8.63994 1754 ft 153 kts 351°
2026-05-01 14:30 51.67814 8.62936 2162 ft 159 kts 356°
2026-05-01 14:30 51.68939 8.62694 2135 ft 165 kts 355°
2026-05-01 14:30 51.70067 8.62302 2163 ft 166 kts 347°
2026-05-01 14:31 51.72271 8.61193 2060 ft 166 kts 338°
2026-05-01 14:31 51.73287 8.60338 1989 ft 163 kts 330°
2026-05-01 14:31 51.74250 8.59409 1983 ft 158 kts 330°
2026-05-01 14:31 51.75138 8.58492 1995 ft 148 kts 327°
2026-05-01 14:32 51.75953 8.57555 1965 ft 142 kts 322°
2026-05-01 14:32 51.76757 8.56657 1881 ft 141 kts 343°
2026-05-01 14:32 51.77607 8.57218 1815 ft 148 kts 59°
2026-05-01 14:32 51.77315 8.58706 1765 ft 155 kts 148°
2026-05-01 14:33 51.76388 8.58398 1748 ft 142 kts 244°
2026-05-01 14:33 51.76639 8.57108 1727 ft 131 kts 321°
2026-05-01 14:33 51.77263 8.56117 1787 ft 128 kts 283°
2026-05-01 14:33 51.76639 8.55451 1805 ft 140 kts 147°
2026-05-01 14:34 51.76661 8.56691 1766 ft 126 kts 21°
2026-05-01 14:34 51.77445 8.56264 1706 ft 126 kts 323°
2026-05-01 14:34 51.78089 8.55371 1626 ft 114 kts 317°
2026-05-01 14:34 51.78610 8.54484 1781 ft 94 kts 311°
2026-05-01 14:35 51.79038 8.53653 1899 ft 110 kts 314°
2026-05-01 14:35 51.79577 8.54052 1830 ft 131 kts 101°
2026-05-01 14:35 51.78969 8.53969 1731 ft 125 kts 279°
2026-05-01 14:35 51.79555 8.52994 1649 ft 127 kts 328°
2026-05-01 14:36 51.80190 8.51997 1646 ft 128 kts 309°
2026-05-01 14:36 51.80646 8.50768 1638 ft 130 kts 295°
2026-05-01 14:36 51.80974 8.49473 1476 ft 115 kts 295°
2026-05-01 14:36 51.81310 8.48389 1173 ft 104 kts 314°
2026-05-01 14:37 51.81812 8.47659 1016 ft 92 kts 321°
2026-05-01 14:37 51.82197 8.47151 1595 ft 54 kts 323°
2026-05-01 14:37 51.82527 8.46702 1698 ft 69 kts 322°
2026-05-01 14:37 51.82512 8.46288 1244 ft 147 kts 221°
2026-05-01 14:38 51.82138 8.44879 1292 ft 136 kts 281°
2026-05-01 14:38 51.82619 8.43665 1343 ft 127 kts 322°
2026-05-01 14:38 51.83442 8.43310 1330 ft 129 kts 13°
2026-05-01 14:38 51.83619 8.44541 1276 ft 145 kts 143°
2026-05-01 14:39 51.82955 8.43995 1314 ft 126 kts 283°
2026-05-01 14:39 51.83546 8.43053 1344 ft 121 kts 323°
2026-05-01 14:39 51.83536 8.41953 1352 ft 134 kts 201°
2026-05-01 14:39 51.82995 8.42795 1336 ft 130 kts 62°
2026-05-01 14:40 51.83698 8.42884 1323 ft 122 kts 319°
2026-05-01 14:40 51.84057 8.41752 1329 ft 130 kts 243°
2026-05-01 14:40 51.83344 8.41936 1329 ft 134 kts 95°
2026-05-01 14:40 51.83912 8.42431 1313 ft 120 kts 317°
2026-05-01 14:41 51.84352 8.41302 1284 ft 129 kts 274°
2026-05-01 14:41 51.83808 8.40229 1290 ft 139 kts 191°
2026-05-01 14:41 51.82978 8.40866 1391 ft 132 kts 139°
2026-05-01 14:41 51.82312 8.41837 1465 ft 132 kts 137°
2026-05-01 14:42 51.81609 8.42823 1489 ft 135 kts 139°
2026-05-01 14:42 51.80836 8.43683 1522 ft 136 kts 149°
2026-05-01 14:42 51.80013 8.44445 1551 ft 137 kts 153°
2026-05-01 14:42 51.79148 8.45104 1581 ft 137 kts 154°
2026-05-01 14:43 51.78301 8.45776 1652 ft 135 kts 154°
2026-05-01 14:43 51.77455 8.46457 1690 ft 136 kts 153°
2026-05-01 14:43 51.76604 8.47160 1720 ft 137 kts 149°
2026-05-01 14:43 51.75768 8.47888 1768 ft 137 kts 150°
2026-05-01 14:44 51.74963 8.48720 1789 ft 139 kts 145°
2026-05-01 14:44 51.73284 8.50266 1853 ft 138 kts 154°
2026-05-01 14:44 51.72430 8.50944 1904 ft 138 kts 152°
2026-05-01 14:45 51.71574 8.51716 1881 ft 142 kts 149°
2026-05-01 14:45 51.69844 8.53391 1812 ft 148 kts 150°
2026-05-01 14:45 51.68963 8.54218 1771 ft 151 kts 149°
2026-05-01 14:46 51.67988 8.54925 1639 ft 157 kts 166°
2026-05-01 14:46 51.65832 8.55190 1477 ft 155 kts 185°
2026-05-01 14:46 51.64763 8.55129 1463 ft 152 kts 182°
2026-05-01 14:47 51.63711 8.55178 1442 ft 151 kts 177°
2026-05-01 14:47 51.62668 8.55432 1345 ft 149 kts 168°
2026-05-01 14:47 51.61779 8.55767 1252 ft 122 kts 164°
2026-05-01 14:48 51.60383 8.56783 1147 ft 102 kts 149°
2026-05-01 14:48 51.59858 8.57506 1125 ft 97 kts 115°
2026-05-01 14:48 51.60459 8.59316 897 ft 98 kts 53°
2026-05-01 14:49 51.61169 8.61035 709 ft 63 kts 60°
2026-05-01 14:49 51.61437 8.61780 702 ft 20 kts 84°
2026-05-01 14:50 51.61420 8.62000 706 ft 8 kts 147°
2026-05-01 14:50 51.61417 8.62003 713 ft 0 kts 156°
2026-05-01 14:51 51.61412 8.62007 712 ft 4 kts 155°
2026-05-01 14:51 51.61276 8.61989 720 ft 16 kts 194°
2026-05-01 14:52 51.61143 8.61826 725 ft 12 kts 239°
2026-05-01 14:52 51.61098 8.61721 725 ft 11 kts 216°
2026-05-01 14:52 51.61014 8.61727 725 ft 0 kts 234°